[[{"header":{"parameterUnit":"m.s-1","parameterCategory":1,"la1":30.2991,"la2":30.254,"lo1":-89.0895,"lo2":-89.0444,"dy":0.0017,"dx":0.0017,"nx":28,"ny":28,"refTime":"2025-08-23T09:00:00:Z","depth":0,"parameterNumber":2,"parameterNumberName":"U-component_of_WINDS"},"data":[0,0,0,0,0,0,0,0,0,0,0,0,0,0,0,0,0,0,0,0,0,0,0,0,0,0,0,0,0,0,0,0,0,0,0,0,0,0,0,0,0,0,0,0,0,0,0,0,0,0,0,0,0,0,0,0,0,0,0.7213,0.7213,0,0.7161,0.716,0.716,0.7108,0.7108,0.7107,0.7106,0.7049,0.7049,0.7048,0,0,0,0,0,0,0,0,0,0,0,0,0,0.7267,0.7266,0.7213,0.7213,0.7212,0.7161,0.716,0.7159,0.7109,0.7108,0.7107,0.7106,0.705,0.7049,0.7048,0,0,0,0,0,0,0,0,0,0,0,0,0,0.7232,0.7266,0.7214,0.7181,0.7177,0.7161,0.716,0.7159,0.7109,0.7108,0.7107,0.7106,0.705,0.7049,0.7047,0.7059,0,0,0.7043,0.7043,0,0,0,0,0,0,0,0,0.7234,0.723,0.7186,0.7183,0.7179,0.714,0.7158,0.7125,0.7109,0.7135,0.7106,0.7105,0.708,0.7076,0.7069,0.7056,0.7054,0.7043,0.7042,0.7042,0.7041,0,0,0,0,0,0,0,0.7237,0.7232,0.7192,0.7186,0.7181,0.7168,0.7162,0.7152,0.7113,0.7132,0.7128,0.7123,0.7078,0.707,0.7067,0.7053,0.7043,0.7042,0.7041,0.7041,0.7047,0.7048,0,0,0,0,0,0,0.7244,0.7234,0.7194,0.7191,0.7205,0.7167,0.7161,0.7154,0.7113,0.7106,0.7124,0.7121,0.7073,0.7068,0.7065,0.7075,0.7042,0.704,0.704,0.7046,0.7047,0.7048,0,0,0,0,0,0,0.7246,0.7241,0.7196,0.7212,0.7205,0.7168,0.716,0.7153,0.7145,0.7107,0.71,0.7123,0.7072,0.7067,0.7061,0.7073,0.704,0.7039,0.7045,0.7046,0.7047,0.7097,0,0,0,0,0,0,0.7248,0.7242,0.7247,0.7212,0.7204,0.7194,0.7161,0.7153,0.7143,0.7139,0.7104,0.7098,0.7071,0.7063,0.7059,0.707,0.7038,0.7043,0.7045,0.7047,0.7094,0.71,0.7105,0,0,0,0,0,0.725,0.7262,0.7247,0.7243,0.7209,0.7195,0.7191,0.716,0.7144,0.7148,0.7124,0.7099,0.7072,0.7063,0.7058,0.7069,0.7042,0.7045,0.7047,0.7092,0.7099,0.7105,0,0,0,0,0,0,0.7298,0.7257,0.724,0.7242,0.7223,0.7187,0.7191,0.7169,0.7153,0.7149,0.7111,0.7104,0.7102,0.7085,0.7075,0.7078,0.7054,0.7055,0.7089,0.7096,0.7101,0.7106,0.7036,0,0,0,0,0,0.7309,0.7302,0.7266,0.7271,0.7262,0.7228,0.7221,0.7199,0.7177,0.7169,0.7144,0.7123,0.7109,0.7102,0.7087,0.7091,0.7083,0.7096,0.7102,0.7106,0.7108,0.7109,0.7115,0.7055,0.7055,0.7055,0,0,0.7331,0.7308,0.7305,0.728,0.7262,0.7255,0.7222,0.7215,0.7209,0.7167,0.7161,0.7142,0.7116,0.7115,0.7114,0.71,0.7123,0.7109,0.7113,0.7112,0.7112,0.7118,0.7123,0.7057,0.7056,0.7056,0,0,0.7368,0.735,0.7352,0.7336,0.731,0.7288,0.7288,0.7256,0.7242,0.7235,0.7204,0.7195,0.7173,0.7156,0.7145,0.7176,0.7152,0.7172,0.72,0.7202,0.7207,0.7211,0.7222,0.7227,0.7174,0.7174,0.7174,0,0.7399,0.7388,0.7356,0.7352,0.7342,0.7304,0.7306,0.7291,0.7262,0.7255,0.7241,0.7213,0.7193,0.7188,0.7196,0.7187,0.7187,0.7176,0.7209,0.7212,0.7216,0.7226,0.723,0.7176,0.7176,0.7176,0.7176,0,0.7427,0.742,0.7424,0.7399,0.7388,0.7387,0.7355,0.7348,0.7328,0.7306,0.73,0.7274,0.7254,0.7251,0.723,0.7243,0.7236,0.7216,0.7191,0.7224,0.7234,0.7237,0.718,0.7179,0.7179,0.7178,0,0,0.7493,0.745,0.7452,0.744,0.7409,0.7403,0.74,0.7381,0.7377,0.7358,0.7354,0.7336,0.7318,0.7305,0.7281,0.7283,0.7309,0.7262,0.7261,0.7272,0.7322,0.7338,0.7344,0.7293,0.7294,0.7294,0.7325,0,0.7525,0.7519,0.749,0.7492,0.7485,0.7449,0.7447,0.7427,0.7407,0.7397,0.7374,0.7363,0.7339,0.7331,0.7331,0.7306,0.7319,0.7304,0.7289,0.7289,0.7298,0.7348,0.7365,0.7395,0.7328,0.7329,0.7329,0,0.7562,0.7547,0.7548,0.7518,0.7514,0.7512,0.7493,0.7485,0.7461,0.7447,0.7433,0.7407,0.7401,0.7378,0.7369,0.7359,0.7351,0.7338,0.7339,0.7336,0.7312,0.7348,0.7404,0.7408,0.7334,0.7334,0.7334,0,0.7611,0.759,0.7589,0.7579,0.7544,0.7544,0.7529,0.7505,0.7496,0.7479,0.7472,0.7454,0.7445,0.7431,0.7401,0.7387,0.7396,0.737,0.7383,0.7384,0.7387,0.7387,0.7443,0.7381,0.7381,0.7381,0.7381,0,0.765,0.7652,0.761,0.7609,0.7611,0.7578,0.758,0.7561,0.754,0.7534,0.7502,0.7497,0.7457,0.7448,0.7424,0.742,0.7416,0.7403,0.7397,0.7407,0.7408,0.7401,0.7399,0.7382,0.7382,0.7381,0.7381,0,0.7705,0.7677,0.7673,0.764,0.7632,0.7634,0.7606,0.7603,0.7581,0.7575,0.7571,0.7536,0.7523,0.7492,0.747,0.7454,0.7457,0.7445,0.7465,0.7461,0.7477,0.7476,0.753,0.7536,0.747,0.7471,0.7472,0,0.7732,0.7733,0.7701,0.7696,0.7682,0.7674,0.7665,0.7632,0.7623,0.7597,0.7598,0.7583,0.7569,0.7549,0.7522,0.7505,0.7492,0.7513,0.749,0.7499,0.7493,0.7494,0.7494,0.7518,0.7519,0.7519,0.752,0,0.7784,0.777,0.7759,0.7743,0.7734,0.7719,0.7703,0.77,0.7663,0.7655,0.7642,0.7631,0.761,0.7595,0.7574,0.7557,0.7532,0.7527,0.753,0.754,0.7552,0.7546,0.748,0.7526,0.7526,0.7525,0.7525,0.7525,0.7826,0.7826,0.7803,0.7792,0.7776,0.7762,0.7758,0.7737,0.7726,0.7706,0.7687,0.7676,0.7653,0.7622,0.7607,0.7598,0.7585,0.7588,0.7589,0.759,0.7595,0.7553,0.7593,0.7593,0.7593,0.7593,0.7593,0,0.7876,0.786,0.785,0.7829,0.782,0.7799,0.778,0.7774,0.7765,0.7745,0.7733,0.7718,0.7703,0.7675,0.7658,0.7655,0.7644,0.7652,0.7652,0.7649,0.7607,0.7607,0.7662,0.7662,0.7662,0.7662,0.7662,0.7662,0.7902,0.79,0.7884,0.7874,0.7858,0.7848,0.7839,0.7825,0.781,0.7795,0.7784,0.7765,0.7742,0.7723,0.7709,0.77,0.7696,0.7708,0.7696,0.7658,0.7651,0.7645,0.7645,0.7707,0.7707,0.7739,0.7739,0.7739]},{"header":{"parameterUnit":"m.s-1","parameterCategory":1,"la1":30.2991,"la2":30.254,"lo1":-89.0895,"lo2":-89.0444,"dy":0.0017,"dx":0.0017,"nx":28,"ny":28,"refTime":"2025-08-23T09:00:00:Z","depth":0,"parameterNumber":3,"parameterNumberName":"V-component_of_WINDS"},"data":[0,0,0,0,0,0,0,0,0,0,0,0,0,0,0,0,0,0,0,0,0,0,0,0,0,0,0,0,0,0,0,0,0,0,0,0,0,0,0,0,0,0,0,0,0,0,0,0,0,0,0,0,0,0,0,0,0,0,-1.7222,-1.7223,0,-1.7287,-1.7288,-1.7289,-1.73,-1.7299,-1.7299,-1.7298,-1.7365,-1.7367,-1.7369,0,0,0,0,0,0,0,0,0,0,0,0,0,-1.7109,-1.7111,-1.7222,-1.7223,-1.7224,-1.7287,-1.7288,-1.7289,-1.73,-1.7299,-1.7299,-1.7298,-1.7364,-1.7367,-1.7369,0,0,0,0,0,0,0,0,0,0,0,0,0,-1.7165,-1.7112,-1.7222,-1.7237,-1.7239,-1.7287,-1.7288,-1.7289,-1.73,-1.7299,-1.7298,-1.7298,-1.7363,-1.7366,-1.737,-1.7407,0,0,-1.738,-1.7382,0,0,0,0,0,0,0,0,-1.7162,-1.7169,-1.7234,-1.7236,-1.7239,-1.7285,-1.7273,-1.7329,-1.73,-1.7277,-1.7298,-1.7297,-1.7339,-1.7344,-1.7358,-1.741,-1.7413,-1.7381,-1.7383,-1.7384,-1.7385,0,0,0,0,0,0,0,-1.7158,-1.7166,-1.7248,-1.7235,-1.7238,-1.7241,-1.7248,-1.7283,-1.7312,-1.7279,-1.728,-1.7287,-1.734,-1.7355,-1.736,-1.7414,-1.738,-1.7383,-1.7386,-1.7387,-1.7501,-1.7502,0,0,0,0,0,0,-1.7151,-1.7163,-1.7246,-1.725,-1.7197,-1.7244,-1.7251,-1.7271,-1.7311,-1.7317,-1.7288,-1.7288,-1.7349,-1.7356,-1.7362,-1.7409,-1.7384,-1.7387,-1.7389,-1.75,-1.7501,-1.7502,0,0,0,0,0,0,-1.7149,-1.7158,-1.7243,-1.7207,-1.7218,-1.7246,-1.7268,-1.7272,-1.7287,-1.7318,-1.7323,-1.7298,-1.7349,-1.7357,-1.7396,-1.7411,-1.7389,-1.7392,-1.7499,-1.7501,-1.7502,-1.7502,0,0,0,0,0,0,-1.7145,-1.7158,-1.7172,-1.7207,-1.722,-1.7276,-1.7269,-1.7274,-1.7293,-1.7293,-1.7329,-1.7334,-1.7349,-1.7391,-1.7399,-1.7415,-1.7395,-1.7498,-1.75,-1.7501,-1.75,-1.7503,-1.7505,0,0,0,0,0,-1.7141,-1.7169,-1.7172,-1.7182,-1.7238,-1.7277,-1.7284,-1.73,-1.7294,-1.7309,-1.7329,-1.7333,-1.7408,-1.7395,-1.7404,-1.7422,-1.7497,-1.7499,-1.7501,-1.7499,-1.7502,-1.7505,0,0,0,0,0,0,-1.7135,-1.7174,-1.7178,-1.7218,-1.7244,-1.7278,-1.7297,-1.7303,-1.7331,-1.733,-1.735,-1.7358,-1.7396,-1.7413,-1.7397,-1.746,-1.7452,-1.7456,-1.7447,-1.7451,-1.7453,-1.7447,-1.7397,0,0,0,0,0,-1.7138,-1.7166,-1.7199,-1.7231,-1.7244,-1.7268,-1.7286,-1.7296,-1.7324,-1.7335,-1.7358,-1.7385,-1.7415,-1.7434,-1.7463,-1.7504,-1.7511,-1.752,-1.7523,-1.7524,-1.7527,-1.755,-1.7554,-1.751,-1.751,-1.751,0,0,-1.7144,-1.7169,-1.7186,-1.723,-1.7251,-1.728,-1.7277,-1.7308,-1.7329,-1.734,-1.7377,-1.7395,-1.7427,-1.7467,-1.7485,-1.7482,-1.7542,-1.7527,-1.7528,-1.753,-1.7553,-1.7557,-1.7561,-1.7511,-1.7511,-1.7511,0,0,-1.7171,-1.7193,-1.7222,-1.7244,-1.7276,-1.7293,-1.73,-1.7334,-1.7346,-1.7384,-1.7393,-1.7419,-1.747,-1.7492,-1.751,-1.7547,-1.7551,-1.7556,-1.7567,-1.7589,-1.7593,-1.7596,-1.7609,-1.7613,-1.7559,-1.7559,-1.7559,0,-1.7175,-1.7218,-1.7236,-1.7266,-1.7286,-1.7297,-1.7327,-1.7347,-1.7387,-1.7401,-1.7397,-1.7461,-1.7483,-1.7528,-1.7537,-1.7552,-1.756,-1.7551,-1.7591,-1.7594,-1.7598,-1.761,-1.7615,-1.7559,-1.7559,-1.7559,-1.7559,0,-1.7222,-1.7252,-1.7271,-1.731,-1.7332,-1.7362,-1.7384,-1.7404,-1.7413,-1.743,-1.747,-1.7497,-1.7532,-1.7544,-1.7553,-1.759,-1.7587,-1.7587,-1.7579,-1.7602,-1.7614,-1.7618,-1.756,-1.756,-1.756,-1.7559,0,0,-1.7244,-1.7293,-1.73,-1.7318,-1.7355,-1.7379,-1.741,-1.7444,-1.746,-1.7489,-1.7515,-1.7558,-1.7558,-1.7579,-1.7591,-1.761,-1.7637,-1.7608,-1.7609,-1.7612,-1.768,-1.7679,-1.7684,-1.7641,-1.7642,-1.7643,-1.7677,0,-1.7274,-1.7329,-1.7347,-1.7392,-1.742,-1.7432,-1.7459,-1.7485,-1.7502,-1.7529,-1.7548,-1.7578,-1.7576,-1.7589,-1.7609,-1.763,-1.7651,-1.7628,-1.7665,-1.7667,-1.7656,-1.769,-1.7689,-1.772,-1.7682,-1.7683,-1.7683,0,-1.7317,-1.7345,-1.7393,-1.7428,-1.744,-1.7464,-1.7497,-1.7522,-1.7553,-1.7564,-1.7587,-1.7598,-1.7631,-1.7622,-1.7668,-1.7652,-1.7669,-1.7681,-1.7683,-1.7686,-1.7675,-1.7694,-1.7731,-1.7735,-1.7691,-1.769,-1.769,0,-1.7327,-1.7378,-1.7414,-1.7429,-1.747,-1.7486,-1.7504,-1.7534,-1.7553,-1.7583,-1.7596,-1.7628,-1.7646,-1.7672,-1.7691,-1.7683,-1.7735,-1.7728,-1.7745,-1.7745,-1.7754,-1.7753,-1.7793,-1.7767,-1.7767,-1.7767,-1.7767,0,-1.7358,-1.7387,-1.7419,-1.744,-1.7473,-1.7494,-1.7526,-1.7545,-1.7571,-1.7597,-1.761,-1.7634,-1.7659,-1.7687,-1.7703,-1.7738,-1.7746,-1.7756,-1.776,-1.7754,-1.7753,-1.7765,-1.7763,-1.7768,-1.7768,-1.7768,-1.7767,0,-1.7375,-1.7397,-1.7437,-1.7473,-1.7483,-1.7505,-1.7536,-1.7558,-1.7577,-1.7609,-1.7618,-1.7647,-1.768,-1.7702,-1.7745,-1.7756,-1.7794,-1.7798,-1.7783,-1.7785,-1.7801,-1.7798,-1.7849,-1.7856,-1.7826,-1.7826,-1.7826,0,-1.7393,-1.7415,-1.7454,-1.7472,-1.749,-1.7519,-1.754,-1.7561,-1.7582,-1.7619,-1.7636,-1.767,-1.7698,-1.7751,-1.7776,-1.7809,-1.7813,-1.7828,-1.7818,-1.7812,-1.7812,-1.781,-1.7812,-1.7829,-1.783,-1.783,-1.783,0,-1.7421,-1.7432,-1.746,-1.7493,-1.7517,-1.7544,-1.7571,-1.7585,-1.7612,-1.7634,-1.7668,-1.769,-1.7734,-1.7768,-1.7803,-1.7822,-1.7831,-1.7833,-1.7839,-1.7833,-1.7823,-1.7828,-1.7787,-1.7832,-1.7832,-1.7831,-1.7831,-1.7831,-1.7439,-1.7459,-1.749,-1.7521,-1.7544,-1.7569,-1.7592,-1.7613,-1.7642,-1.7679,-1.7691,-1.7726,-1.7757,-1.7805,-1.7825,-1.7853,-1.7852,-1.786,-1.7862,-1.7863,-1.7863,-1.782,-1.786,-1.786,-1.786,-1.786,-1.786,0,-1.7467,-1.7488,-1.7517,-1.7554,-1.758,-1.7586,-1.7616,-1.7637,-1.7668,-1.7696,-1.7724,-1.7763,-1.7796,-1.7824,-1.7859,-1.7876,-1.7881,-1.7884,-1.7883,-1.7887,-1.7862,-1.7854,-1.788,-1.788,-1.788,-1.788,-1.788,-1.788,-1.7485,-1.752,-1.7535,-1.7582,-1.7602,-1.7637,-1.7654,-1.7677,-1.77,-1.7743,-1.7771,-1.7789,-1.7817,-1.7854,-1.7885,-1.7892,-1.7904,-1.7906,-1.7915,-1.7891,-1.7888,-1.7886,-1.7878,-1.7909,-1.7909,-1.7937,-1.7937,-1.7937]}]]